Albany, GA

8:03 AM EDT on May 25, 2017 (GMT -0400)
Southwest Georgia Regional

Weather History for KABY - February, 2013

Change the Weather History Date:

Saturday, February 23, 2013

  Actual Average Record
Temperature  
Mean Temperature 58 °F 54 °F  
Max Temperature 66 °F 67 °F 82 °F (1962)
Min Temperature 50 °F 42 °F 23 °F (1963)
Degree Days  
Heating Degree Days 7 11  
Month to date heating degree days 369 303  
Since 1 July heating degree days 1291 1507  
Cooling Degree Days 0 0  
Month to date cooling degree days 0 0  
Year to date cooling degree days 27 4  
Growing Degree Days 7 (Base 50)    
Moisture  
Dew Point 55 °F    
Average Humidity 97    
Maximum Humidity 100    
Minimum Humidity 93    
Precipitation  
Precipitation 1.15 in 0.17 in 1.15 in (2013)
Month to date precipitation 6.64 3.34  
Year to date precipitation 7.96 8.16  
Sea Level Pressure  
Sea Level Pressure 29.92 in    
Wind  
Wind Speed 5 mph (NNE)    
Max Wind Speed 25 mph    
Max Gust Speed 35 mph    
Visibility 4 miles    
Events Rain , Thunderstorm    
T = Trace of Precipitation, MM = Missing Value Source: NWS Daily Summary

Daily Weather History Graph

Daily Weather History Graph

Search for Another Location

Airport or City:

Trip Planner

Search our weather history database for the weather conditions in past years. The results will help you decide how hot, cold, wet, or windy it might be!

Date:

Astronomy

Feb. 23, 2013 Rise Set
Actual Time 7:10 AM EST 6:30 PM EST
Civil Twilight 6:45 AM EST 6:55 PM EST
Nautical Twilight 6:17 AM EST 7:23 PM EST
Astronomical Twilight 5:49 AM EST 7:51 PM EST
Moon 4:43 PM EST (2/23) 5:27 AM EST (2/23)
Length of Visible Light 12h 09m
Length of Day
11h 20m
Waxing Gibbous, 95% of the Moon is Illuminated
Feb 23
Waxing Gibbous
Feb 25
Full
Mar 4
Last Quarter
Mar 11
New
Mar 19
First Quarter

Hourly Weather History & Observations

Time (EST) Temp. Dew Point Humidity Pressure Visibility Wind Dir Wind Speed Gust Speed Precip Events Conditions
12:22 AM 55.4 °F - N/A% 29.96 in 2.5 mi NNE 3.5 mph - 0.08 in Rain Heavy Rain
12:33 AM 55.4 °F - N/A% 29.95 in 6.0 mi ENE 8.1 mph - 0.08 in Rain Light Rain
12:53 AM 55.0 °F - N/A% 29.96 in 10.0 mi Calm Calm - 0.08 in   Overcast
1:36 AM 55.4 °F - N/A% 29.95 in 6.0 mi Calm Calm - 0.00 in   Haze
1:53 AM 55.0 °F - N/A% 29.94 in 6.0 mi Calm Calm - 0.00 in Rain Light Rain
2:53 AM 62.1 °F - N/A% 29.91 in 10.0 mi South 10.4 mph 26.5 mph 0.00 in   Overcast
3:53 AM 62.1 °F - N/A% 29.89 in 6.0 mi Calm Calm - 0.00 in Rain Light Rain
4:46 AM 57.2 °F - N/A% 29.90 in 2.5 mi NNW 5.8 mph - 0.00 in Rain Light Rain
4:53 AM 57.0 °F - N/A% 29.91 in 2.5 mi NNW 6.9 mph - 0.00 in Rain Light Rain
5:27 AM 57.2 °F - N/A% 29.89 in 1.2 mi Calm Calm - 0.11 in Rain Heavy Rain
5:33 AM 57.2 °F - N/A% 29.90 in 3.0 mi Calm Calm - 0.11 in Rain Light Rain
5:53 AM 57.0 °F - N/A% 29.90 in 5.0 mi Calm Calm - 0.11 in   Haze
6:42 AM 55.4 °F - N/A% 29.91 in 2.5 mi North 3.5 mph - 0.01 in Rain Light Rain
7:53 AM 51.1 °F 51.1 °F 100% 29.92 in 2.0 mi NE 6.9 mph - 0.00 in Rain Light Rain
8:17 AM 51.8 °F 50.0 °F 94% 29.98 in 3.0 mi NNW 17.3 mph 34.5 mph 0.01 in Rain Rain
8:21 AM 51.8 °F 50.0 °F 94% 29.96 in 1.8 mi NNE 9.2 mph 34.5 mph 0.05 in Rain Heavy Rain
8:37 AM 51.8 °F 50.0 °F 94% 29.95 in 2.0 mi North 5.8 mph - 0.10 in Rain Rain
8:49 AM 51.8 °F 48.2 °F 88% 29.94 in 2.5 mi NNE 5.8 mph - 0.13 in Rain , Thunderstorm Thunderstorms and Rain
8:53 AM 51.1 °F 48.9 °F 92% 29.94 in 4.0 mi NE 4.6 mph - 0.13 in Rain , Thunderstorm Thunderstorms and Rain
9:08 AM 50.0 °F 48.2 °F 94% 29.96 in 2.5 mi SE 4.6 mph - 0.03 in Rain Rain
9:21 AM 50.0 °F 48.2 °F 94% 29.95 in 1.0 mi Variable 5.8 mph - 0.13 in Rain Heavy Rain
9:30 AM 50.0 °F 48.2 °F 94% 29.95 in 1.5 mi SE 6.9 mph - 0.17 in Rain Heavy Rain
9:46 AM 50.0 °F 48.2 °F 94% 29.96 in 2.0 mi SE 3.5 mph - 0.22 in Rain Heavy Rain
9:53 AM 50.0 °F 48.9 °F 96% 29.96 in 1.8 mi Calm Calm - 0.26 in Rain Heavy Rain
10:53 AM 52.0 °F 51.1 °F 97% 29.95 in 1.8 mi Calm Calm - 0.25 in Rain Heavy Rain
11:50 AM 57.2 °F 55.4 °F 94% 29.96 in 1.8 mi South 4.6 mph - 0.19 in Rain Heavy Rain
11:53 AM 57.0 °F 55.9 °F 96% 29.96 in 1.8 mi South 4.6 mph - 0.20 in Rain Heavy Rain
12:02 PM 57.2 °F 55.4 °F 94% 29.95 in 3.0 mi South 3.5 mph - N/A Rain Rain
12:38 PM 57.2 °F 55.4 °F 94% 29.93 in 4.0 mi SSW 3.5 mph - N/A Rain Light Rain
12:53 PM 57.0 °F 55.9 °F 96% 29.92 in 8.0 mi SSW 4.6 mph - N/A Rain Light Rain
1:53 PM 64.0 °F 63.0 °F 96% 29.89 in 10.0 mi SSW 4.6 mph - 0.00 in   Mostly Cloudy
2:53 PM 64.9 °F - N/A% 29.88 in 9.0 mi Calm Calm - 0.00 in Rain Light Rain
3:25 PM 64.4 °F 62.6 °F 94% 29.87 in 2.5 mi Calm Calm - 0.01 in Rain Rain
3:33 PM 64.4 °F 62.6 °F 94% 29.87 in 6.0 mi Calm Calm - 0.01 in Rain Light Rain
3:53 PM 64.9 °F 63.3 °F 94% 29.83 in 4.0 mi East 8.1 mph - 0.01 in Rain , Thunderstorm Rain
4:14 PM 64.4 °F 64.4 °F 100% 29.88 in 10.0 mi NW 5.8 mph - 0.01 in Rain Rain
4:43 PM 64.4 °F 64.4 °F 100% 29.88 in 8.0 mi NNW 3.5 mph - 0.01 in Rain Rain
4:53 PM 64.0 °F 63.5 °F 98% 29.88 in 7.0 mi NNW 5.8 mph - 0.01 in Rain Rain
5:32 PM 60.8 °F 59.0 °F 94% 29.91 in 5.0 mi Calm Calm - 0.00 in Rain , Thunderstorm Rain
5:53 PM 60.1 °F 59.0 °F 96% 29.89 in 2.5 mi Variable 4.6 mph - 0.01 in Rain Rain
6:53 PM 57.0 °F 55.4 °F 94% 29.92 in 2.5 mi Calm Calm - 0.01 in Rain Rain
7:00 PM 55.4 °F 55.4 °F 100% 29.92 in 7.0 mi Calm Calm - 0.00 in Rain Rain
7:07 PM 55.4 °F 55.4 °F 100% 29.91 in 5.0 mi Calm Calm - 0.00 in Rain Rain
7:41 PM 55.4 °F 55.4 °F 100% 29.86 in 4.0 mi East 6.9 mph - 0.03 in Rain Rain
7:50 PM 55.4 °F 55.4 °F 100% 29.86 in 6.0 mi ESE 6.9 mph - 0.03 in Rain Rain
7:53 PM 55.9 °F 55.4 °F 98% 29.86 in 6.0 mi ESE 6.9 mph - 0.03 in Rain Rain
8:53 PM 55.9 °F - N/A% 29.86 in 6.0 mi Calm Calm - 0.00 in Rain Rain
10:35 PM 53.6 °F - N/A% 29.92 in 2.5 mi NNW 12.7 mph - 0.00 in Rain Rain
10:46 PM 53.6 °F - N/A% 29.93 in 1.0 mi NNW 10.4 mph - 0.00 in Rain Rain
10:53 PM 53.1 °F - N/A% 29.94 in 0.8 mi NNW 12.7 mph - 0.00 in Rain Rain
11:07 PM 53.6 °F - N/A% 29.94 in 1.2 mi NNW 9.2 mph - 0.00 in Rain Rain
11:53 PM 52.0 °F - N/A% 29.95 in 2.0 mi North 8.1 mph - 0.00 in Rain Rain